Weather History for Bergamo, Italy

Change the Weather History Date:

Friday, March 1, 2013

  Actual Average Record
Temperature  
Mean Temperature 44 °F -  
Max Temperature 53 °F 54 °F 66 °F (2008)
Min Temperature 35 °F 38 °F 21 °F (2005)
Degree Days  
Heating Degree Days 21    
Moisture  
Dew Point 38 °F    
Average Humidity 77    
Maximum Humidity 87    
Minimum Humidity 58    
Precipitation  
Precipitation 0.00 in 0.11 in - ()
Sea Level Pressure  
Sea Level Pressure 30.08 in    
Wind  
Wind Speed 5 mph ()    
Max Wind Speed 8 mph    
Max Gust Speed -    
Visibility 4.1 miles    
Events      
Averages and records for this station are not official NWS values.
T = Trace of Precipitation, MM = Missing Value Source: Averaged Metar Reports

Daily Weather History Graph

Daily Weather History Graph

Search for Another Location

Airport:

Trip Planner

Search our weather history database for the weather conditions in past years. The results will help you decide how hot, cold, wet, or windy it might be!

Date:

Astronomy

Mar. 01, 2013 Rise Set
Actual Time 6:59 AM CET 6:08 PM CET
Civil Twilight 6:29 AM CET 6:37 PM CET
Nautical Twilight 5:55 AM CET 7:12 PM CET
Astronomical Twilight 5:21 AM CET 7:46 PM CET
Moon 10:39 PM CET (3/1) 8:21 AM CET (3/1)
Length of Visible Light 12h 07m
Length of Day
11h 08m
Waning Gibbous, 85% of the Moon is Illuminated
Mar 1
Waning Gibbous
Mar 4
Last Quarter
Mar 11
New
Mar 19
First Quarter
Mar 27
Full

Hourly Weather History & Observations

Time (CET) Temp. Windchill Dew Point Humidity Pressure Visibility Wind Dir Wind Speed Gust Speed Precip Events Conditions
12:20 AM 39.2 °F 33.6 °F 35.6 °F 87% 30.18 in - North 8.1 mph - N/A   Clear
12:50 AM 39.2 °F 34.2 °F 35.6 °F 87% 30.18 in - North 6.9 mph - N/A   Clear
1:20 AM 39.2 °F 35.0 °F 35.6 °F 87% 30.15 in 5.0 mi North 5.8 mph - N/A   Unknown
1:50 AM 39.2 °F 35.0 °F 33.8 °F 81% 30.15 in 5.0 mi NNE 5.8 mph - N/A   Unknown
2:20 AM 37.4 °F 34.9 °F 33.8 °F 87% 30.15 in 5.0 mi NE 3.5 mph - N/A   Unknown
2:50 AM 37.4 °F 33.8 °F 33.8 °F 87% 30.15 in 5.0 mi NNE 4.6 mph - N/A   Unknown
3:20 AM 35.6 °F 31.7 °F 32.0 °F 87% 30.12 in 5.0 mi NNE 4.6 mph - N/A   Unknown
3:50 AM 35.6 °F 31.7 °F 32.0 °F 87% 30.12 in 5.0 mi North 4.6 mph - N/A   Unknown
4:20 AM 37.4 °F 32.8 °F 33.8 °F 87% 30.12 in 5.0 mi North 5.8 mph - N/A   Unknown
4:50 AM 37.4 °F 32.8 °F 33.8 °F 87% 30.12 in 5.0 mi NNE 5.8 mph - N/A   Unknown
5:20 AM 37.4 °F 32.1 °F 33.8 °F 87% 30.09 in 5.0 mi NNE 6.9 mph - N/A   Unknown
5:50 AM 35.6 °F 30.7 °F 32.0 °F 87% 30.09 in 5.0 mi NNE 5.8 mph - N/A   Unknown
6:20 AM 35.6 °F 30.7 °F 32.0 °F 87% 30.09 in 5.0 mi North 5.8 mph - N/A   Unknown
6:50 AM 35.6 °F 30.7 °F 32.0 °F 87% 30.09 in 5.0 mi North 5.8 mph - N/A   Unknown
7:20 AM 35.6 °F 29.9 °F 32.0 °F 87% 30.09 in 5.0 mi North 6.9 mph - N/A   Unknown
7:50 AM 37.4 °F 32.8 °F 33.8 °F 87% 30.09 in 5.0 mi North 5.8 mph - N/A   Unknown
8:20 AM 37.4 °F 33.8 °F 33.8 °F 87% 30.12 in - NNE 4.6 mph - N/A   Clear
8:50 AM 41.0 °F 39.0 °F 35.6 °F 81% 30.12 in - North 3.5 mph - N/A   Clear
9:20 AM 44.6 °F - 37.4 °F 76% 30.12 in - NNE 2.3 mph - N/A   Clear
9:50 AM 46.4 °F - 37.4 °F 71% 30.12 in - Calm Calm - N/A   Clear
10:20 AM 48.2 °F - 37.4 °F 66% 30.09 in - Variable 1.2 mph - N/A   Clear
10:50 AM 50.0 °F - 37.4 °F 62% 30.09 in - Variable 2.3 mph - N/A   Clear
11:20 AM 50.0 °F - 37.4 °F 62% 30.09 in - Variable 3.5 mph - N/A   Clear
11:50 AM 50.0 °F - 41.0 °F 71% 30.09 in - SSW 5.8 mph - N/A   Clear
12:20 PM 51.8 °F - 39.2 °F 62% 30.09 in - SSW 5.8 mph - N/A   Clear
12:50 PM 53.6 °F - 41.0 °F 62% 30.06 in - SSE 3.5 mph - N/A   Clear
1:20 PM 51.8 °F - 41.0 °F 67% 30.06 in - South 5.8 mph - N/A   Clear
1:50 PM 53.6 °F - 39.2 °F 58% 30.04 in - Variable 3.5 mph - N/A   Clear
2:20 PM 53.6 °F - 39.2 °F 58% 30.04 in - South 4.6 mph - N/A   Clear
2:50 PM 53.6 °F - 39.2 °F 58% 30.04 in - Variable 2.3 mph - N/A   Clear
3:20 PM 53.6 °F - 39.2 °F 58% 30.04 in 5.0 mi South 3.5 mph - N/A   Unknown
3:50 PM 51.8 °F - 41.0 °F 67% 30.04 in 3.7 mi South 5.8 mph - N/A   Partly Cloudy
4:20 PM 51.8 °F - 39.2 °F 62% 30.04 in 3.7 mi South 4.6 mph - N/A   Partly Cloudy
4:50 PM 51.8 °F - 39.2 °F 62% 30.01 in 3.7 mi South 5.8 mph - N/A   Partly Cloudy
5:20 PM 51.8 °F - 41.0 °F 67% 30.01 in 3.7 mi SSE 4.6 mph - N/A   Scattered Clouds
5:50 PM 50.0 °F - 41.0 °F 71% 30.01 in 3.7 mi SSE 4.6 mph - N/A   Scattered Clouds
6:20 PM 50.0 °F - 41.0 °F 71% 30.01 in 3.7 mi SSE 5.8 mph - N/A   Scattered Clouds
6:50 PM 48.2 °F - 41.0 °F 76% 30.04 in 3.7 mi SE 5.8 mph - N/A   Scattered Clouds
7:20 PM 46.4 °F 44.3 °F 41.0 °F 81% 30.04 in 3.7 mi SE 4.6 mph - N/A   Scattered Clouds
7:50 PM 46.4 °F - 41.0 °F 81% 30.04 in 3.7 mi Variable 2.3 mph - N/A   Scattered Clouds
8:20 PM 42.8 °F - 39.2 °F 87% 30.04 in 3.7 mi Calm Calm - N/A   Scattered Clouds
8:50 PM 44.6 °F - 41.0 °F 87% 30.04 in 3.7 mi Variable 1.2 mph - N/A   Scattered Clouds
9:20 PM 44.6 °F - 41.0 °F 87% 30.04 in 2.5 mi NE 2.3 mph - N/A   Scattered Clouds
9:50 PM 44.6 °F 43.1 °F 41.0 °F 87% 30.04 in 2.5 mi North 3.5 mph - N/A   Mostly Cloudy
10:20 PM 44.6 °F 43.1 °F 41.0 °F 87% 30.04 in 2.5 mi NNE 3.5 mph - N/A   Mostly Cloudy
10:50 PM 44.6 °F 42.2 °F 41.0 °F 87% 30.04 in 2.5 mi North 4.6 mph - N/A   Mostly Cloudy
11:20 PM 44.6 °F 43.1 °F 41.0 °F 87% 30.04 in 2.5 mi North 3.5 mph - N/A   Mostly Cloudy
11:50 PM 44.6 °F 42.2 °F 41.0 °F 87% 30.04 in 2.5 mi NNE 4.6 mph - N/A   Mostly Cloudy